Regional Weather Roundup
Issued by NWS

Home | Current Version | Previous Version | Text Only | Print | Product List | Glossary On
Versions: 1 2 3 4 5 6 7 8 9 10 11 12 13 14 15 16 17 18 19 20 21 22 23 24 25 26 27 28 29 30 31 32 33 34 35 36 37 38 39 40 41 42 43 44 45 46 47 48 49 50
000
ASUS46 KPQR 271510
RWROR

OREGON REGIONAL WEATHER ROUNDUP
NATIONAL WEATHER SERVICE PORTLAND OR
700 AM PST FRI FEB 27 2015

NOTE: "FAIR" INDICATES FEW OR NO CLOUDS BELOW 12,000 FEET WITH
NO SIGNIFICANT WEATHER AND/OR OBSTRUCTIONS TO VISIBILITY.

ORZ001>013-271600-
NORTHWEST OREGON


CITY           SKY/WX    TMP DP  RH WIND       PRES   REMARKS
ASTORIA        CLOUDY    46  44  93 S6        29.71F
NEWPORT        LGT RAIN  48  43  81 W13G22    29.82F
PORTLAND       RAIN      48  46  93 SW5       29.74S FOG
VANCOUVER WA   RAIN      47  45  93 CALM      29.73S FOG
SCAPPOOSE      CLOUDY    46  45  96 CALM      29.72S
HILLSBORO      CLOUDY    46  45  96 CALM      29.73S
AURORA         CLOUDY    46  44  93 S6        29.75F
MCMINNVILLE    CLOUDY    47  44  90 SW8       29.75F
SALEM          LGT RAIN  47  44  90 SW8       29.75F
CORVALLIS      CLOUDY    46  43  87 SW6       29.79F
EUGENE         CLOUDY    46  43  89 SW6       29.80F
$$

ORZ021-028-271600-
SOUTHWEST OREGON


CITY           SKY/WX    TMP DP  RH WIND       PRES   REMARKS
NORTH BEND     CLOUDY    50  48  93 NW9       29.86F
BROOKINGS      LGT RAIN  47  47 100 NW7       29.89S
ROSEBURG       CLOUDY    48  46  93 CALM      29.83F
SEXTON SUMMIT  FOG       36  36 100 VRB3      29.78F VSB 1/4
MEDFORD        CLOUDY    44  42  93 SE5       29.82S FOG
$$

ORZ014>016-041-271600-
COLUMBIA GORGE


CITY           SKY/WX    TMP DP  RH WIND       PRES   REMARKS
TROUTDALE      LGT RAIN  49  46  90 SW8       29.72S FOG
THE DALLES     CLOUDY    45  43  93 CALM      29.72F
$$

ORZ029>031-041-044-049-050-061>064-502-503-505>511-271600-
EASTERN OREGON


CITY           SKY/WX    TMP DP  RH WIND       PRES   REMARKS
REDMOND        MOCLDY    34  33  96 CALM      29.70F
BEND           CLOUDY    34  32  93 CALM      29.69F
PRINEVILLE     CLOUDY    34  34 100 CALM      29.70F FOG
KLAMATH FALLS  MOCLDY    36  32  85 W8        29.76F WCI  30
LAKEVIEW       MOCLDY    34  30  86 SE6       29.75F WCI  29
HERMISTON      CLOUDY    42  38  85 E6        29.73F
PENDLETON      CLOUDY    39  35  86 NE10      29.71F WCI  32
JOHN DAY       CLOUDY    35  33  94 SE5       29.71F WCI  31
MEACHAM        CLOUDY    33  32  96 CALM      29.70S
LA GRANDE      CLOUDY    34  27  75 CALM      29.74S
BAKER CITY     CLOUDY    29  28  96 CALM      29.74F
BURNS          FOG       30  27  88 CALM      29.73F VSB 1
ROME             N/A     34  30  85 SE6       29.73F WCI  29
ONTARIO        CLOUDY    30  27  88 CALM      29.80F
$$



USA.gov is the U.S. government's official web portal to all federal, state and local government web resources and services.